GFSNGP_sfc_30mbdewp_156.txt.gz
Dewpoint
10 11 12 15 17 17 20 23 24 25 28 33 32 32 32 32 31 28 26 26 26 26 25 25 24 25 24 25 24 24 24 24 23 21 21 22 22 22 23 23 23 23 23 23
17 17 18 21 23 22 21 22 24 26 27 28 32 34 32 29 29 27 27 26 25 24 21 20 20 21 21 22 23 23 22 22 21 18 16 17 18 18 19 20 21 21 22 24
20 19 25 25 27 25 24 24 23 23 28 32 30 30 29 28 26 26 25 24 22 20 19 19 19 20 20 20 21 20 20 20 20 15 14 14 13 13 13 14 14 16 20 22
21 20 19 22 26 27 29 29 30 27 29 31 30 30 31 27 25 24 24 22 21 19 19 19 19 19 19 18 19 19 18 18 18 14 13 13 12 12 11 10 10 9 12 14
20 17 17 17 19 27 26 23 25 29 30 30 30 28 27 26 25 24 23 22 21 19 19 19 18 18 18 17 17 18 17 16 17 15 12 13 11 11 10 9 9 8 10 11
21 20 12 20 26 28 27 22 25 29 30 26 26 24 25 24 23 22 21 20 18 18 19 20 20 19 19 19 19 19 18 16 16 15 12 12 12 11 10 9 9 9 9 12
24 23 23 23 27 28 20 23 29 29 28 27 26 27 26 23 22 21 19 18 17 18 19 19 21 20 18 18 18 19 19 16 16 14 13 13 13 11 11 10 11 12 13 13
25 25 22 27 28 21 30 30 30 29 28 28 26 24 23 22 21 19 18 17 16 17 18 18 19 19 18 17 19 19 18 17 16 17 16 15 16 17 14 13 15 15 15 15
27 23 31 29 30 30 30 29 30 29 28 27 25 23 22 21 20 19 19 18 17 17 17 16 18 19 18 19 18 18 16 16 17 16 17 18 17 17 17 16 16 15 15 16
27 26 27 30 30 29 29 29 29 28 27 26 24 22 22 21 19 19 21 19 19 18 18 17 16 16 17 15 14 17 17 17 17 16 16 16 18 17 16 15 15 15 15 14
27 28 29 29 30 29 28 29 28 27 27 25 23 22 21 19 18 19 18 17 19 19 18 18 17 15 14 13 13 11 13 12 13 15 16 16 15 15 15 14 12 13 13 15
28 30 28 28 31 30 29 28 27 26 25 24 23 22 20 18 17 15 14 14 15 17 16 16 15 13 13 13 11 10 9 10 12 11 12 13 14 15 11 11 11 10 10 11
30 32 32 32 31 30 29 27 26 26 25 24 23 21 19 18 17 14 12 11 12 15 16 17 16 16 15 15 13 15 16 15 13 13 13 13 13 13 13 13 9 9 9 8
31 30 30 30 29 29 28 27 27 25 24 23 22 21 19 18 17 14 11 10 10 15 18 17 17 17 19 20 18 16 17 14 16 16 16 16 15 15 14 13 12 12 11 8
30 29 29 29 29 28 27 26 24 23 23 23 22 21 19 18 16 14 13 11 9 11 13 13 14 17 18 19 18 18 18 17 16 16 15 13 13 13 12 11 11 11 10 9
27 27 27 28 27 27 26 25 23 23 23 23 22 21 19 18 17 15 13 12 9 9 13 16 16 18 17 18 19 17 17 16 15 15 14 13 12 12 10 10 9 9 9 9
27 26 26 26 26 25 25 24 23 23 22 22 22 21 19 18 17 15 14 13 14 16 16 17 16 16 15 18 19 17 17 16 14 13 13 11 11 11 9 9 9 8 8 10
27 27 26 26 26 25 24 24 23 23 22 21 21 21 21 19 18 17 17 17 17 16 16 16 17 15 14 17 18 16 16 14 13 13 12 13 12 9 10 10 9 8 9 8
28 27 27 26 26 26 25 23 22 22 22 22 21 21 21 21 21 20 20 18 16 15 15 17 15 14 15 15 16 15 15 15 14 12 12 12 13 11 11 11 10 10 9 8
28 28 27 26 26 25 25 25 24 23 23 22 22 21 20 20 20 19 19 17 17 18 19 17 15 15 14 14 14 11 14 15 14 12 14 12 12 13 12 10 9 9 10 10
29 28 27 26 26 26 26 25 24 22 22 22 20 20 20 20 18 17 17 16 18 18 16 16 12 11 11 9 10 10 14 15 15 14 14 13 12 11 11 11 10 10 10 9
29 27 26 25 25 25 25 25 25 23 21 20 21 21 20 20 17 17 18 17 17 18 14 13 12 12 10 10 7 11 14 13 13 14 13 12 12 11 11 10 10 10 9 9
29 28 26 25 26 27 25 25 24 23 21 20 19 19 19 20 19 17 16 17 15 15 15 14 13 14 12 12 13 16 15 14 13 13 13 12 12 12 11 10 10 10 10 10
28 28 27 27 25 24 24 24 23 23 22 22 21 20 21 21 20 17 17 17 16 15 15 16 16 14 13 15 16 16 15 14 14 14 13 13 13 12 12 11 10 10 10 10
27 26 25 24 25 26 26 25 22 22 21 20 20 19 18 18 22 22 19 19 14 15 16 16 16 15 14 16 17 15 14 14 14 14 13 13 13 12 12 12 11 11 11 11
26 26 26 26 26 25 24 22 23 23 21 22 22 22 21 19 18 17 17 18 16 13 16 18 15 15 16 16 16 15 14 14 13 13 13 13 13 13 13 13 13 13 13 12
23 21 22 21 20 20 21 20 22 22 20 23 23 22 21 20 19 18 17 17 16 15 15 16 17 16 17 17 15 15 15 15 14 14 15 15 15 15 15 15 16 16 16 16

GFSNGP_sfc_30mbdewp_162.txt.gz
Dewpoint
14 14 13 12 11 9 7 8 7 9 9 14 26 35 37 37 34 32 31 29 29 29 28 28 27 29 28 27 30 31 28 27 24 25 23 23 22 23 25 25 25 23 24 25
19 18 16 15 14 14 11 7 5 6 8 15 33 37 38 35 33 32 31 31 31 31 28 27 26 28 24 25 24 24 23 22 20 18 19 19 20 20 20 22 26 24 23 26
20 18 19 21 21 18 16 16 16 13 20 25 32 34 35 35 34 33 32 32 32 27 25 22 21 21 22 21 22 21 19 18 16 16 16 16 16 16 16 17 18 20 20 21
22 22 18 19 16 17 19 21 23 22 25 26 28 34 38 39 35 34 34 32 27 25 23 22 22 21 21 19 20 19 17 16 14 15 14 15 14 14 14 15 14 15 16 16
23 21 18 16 15 15 26 26 32 21 22 25 30 35 37 36 35 35 31 28 25 22 23 23 21 20 18 18 18 17 16 15 15 14 14 14 14 14 14 14 14 15 16 16
22 19 10 15 26 31 27 22 26 25 24 33 34 30 31 35 33 30 28 25 22 22 23 23 21 21 23 22 22 22 18 16 14 15 15 15 15 15 16 15 16 17 17 18
23 21 16 15 18 29 24 24 30 29 27 33 32 31 38 34 28 27 25 22 22 22 22 24 24 23 22 21 21 22 22 20 21 17 17 19 20 19 18 18 19 19 20 20
22 19 19 21 22 31 31 31 31 30 32 31 32 31 29 27 26 24 21 20 20 20 21 23 22 22 21 19 21 21 20 20 21 22 22 21 22 23 21 21 21 22 21 21
20 23 34 35 32 34 31 30 31 31 32 31 29 28 27 26 23 21 20 20 20 18 19 20 20 21 19 20 21 20 20 20 21 21 22 24 23 22 22 22 21 20 21 21
31 26 25 29 33 34 30 30 30 31 32 30 28 27 26 24 22 21 21 21 19 18 18 18 18 18 19 18 18 20 21 21 21 21 22 21 23 23 20 18 18 19 17 19
28 29 29 29 31 29 30 30 29 30 31 29 28 26 25 23 22 21 21 20 21 20 20 19 18 18 17 15 15 17 18 18 18 22 22 23 19 15 20 15 13 14 13 16
29 32 31 30 33 31 31 29 29 30 29 28 27 25 25 23 22 23 20 21 20 21 20 18 16 16 15 14 13 14 14 14 16 16 19 19 20 19 13 14 12 11 11 11
30 37 37 37 34 31 31 30 29 29 28 27 26 25 24 23 23 22 20 20 19 20 19 19 17 14 14 14 15 16 15 17 16 16 18 19 19 20 20 17 15 13 12 11
36 35 33 33 32 32 31 30 30 29 28 26 25 24 23 21 22 20 18 17 17 18 20 22 21 20 23 22 21 20 22 20 22 22 21 21 21 20 20 19 19 19 17 15
31 32 32 32 32 31 31 29 28 27 26 26 25 23 22 21 19 17 15 15 15 17 19 18 18 21 22 22 20 18 21 20 19 22 22 20 18 18 19 18 17 17 18 17
30 31 29 30 30 30 30 28 27 27 27 25 24 23 22 21 18 15 13 13 15 16 18 18 19 22 21 21 20 20 21 21 21 21 21 20 19 19 17 16 15 15 15 17
29 30 29 29 30 30 29 29 28 27 26 25 24 24 23 21 19 15 13 13 17 17 18 18 19 22 22 22 22 21 21 21 18 16 17 18 18 17 16 15 14 14 14 15
30 30 29 29 29 30 29 29 28 27 27 26 26 25 23 22 19 16 16 18 19 21 22 22 23 22 21 21 22 21 21 22 22 20 19 19 18 17 15 14 15 15 15 15
30 29 30 29 29 30 30 29 28 27 28 27 26 25 25 25 23 22 21 19 18 18 21 24 23 22 20 21 20 20 19 20 19 18 17 17 17 16 17 18 17 17 14 15
31 33 34 32 32 31 31 31 30 28 28 27 27 25 25 26 25 23 21 20 21 21 22 23 22 22 20 19 20 17 18 19 19 19 19 19 19 19 18 19 16 16 17 17
32 31 30 30 30 31 30 29 27 26 27 27 26 25 25 26 26 25 24 23 24 24 26 23 22 20 18 17 18 17 16 17 19 20 20 19 20 21 22 21 18 17 16 15
31 30 29 29 29 29 29 30 28 27 26 26 27 27 27 26 26 25 25 24 26 25 24 23 22 19 16 15 15 18 18 18 19 19 19 19 20 20 18 18 17 16 16 15
31 30 29 29 29 29 30 29 28 27 26 26 26 26 26 27 26 23 23 24 24 25 23 21 19 18 16 20 17 18 18 18 19 19 19 19 19 19 18 16 16 16 15 14
30 30 30 30 29 28 28 29 28 28 28 28 27 27 27 26 27 25 25 24 23 24 23 22 21 19 17 20 20 20 20 20 20 20 19 18 18 18 16 16 15 16 16 15
30 30 29 29 30 30 30 29 28 28 27 26 26 26 26 26 29 29 27 24 22 23 23 22 22 20 20 21 21 20 21 21 21 21 20 19 18 17 17 18 19 17 17 17
30 31 31 29 28 29 29 28 28 28 27 28 28 28 28 27 25 26 27 27 24 21 23 25 22 22 21 20 20 21 21 21 20 19 18 18 18 17 18 18 17 17 18 15
28 28 30 28 26 26 25 26 30 29 27 29 29 30 29 28 27 26 25 26 25 24 22 24 24 23 22 20 20 21 22 21 21 21 20 17 17 19 20 20 18 16 12 10

GFSNGP_sfc_30mbdewp_165.txt.gz
Dewpoint
14 13 16 17 16 15 15 16 13 12 11 14 13 23 33 34 34 32 30 29 29 28 27 28 28 28 28 29 28 29 27 27 26 24 24 23 23 26 26 25 22 23 24 20
20 22 21 19 19 18 17 16 15 16 12 14 34 38 37 34 34 32 31 30 29 29 29 29 27 27 29 28 31 30 27 24 19 21 21 21 21 23 25 25 23 21 22 19
20 21 22 19 20 21 21 21 20 17 18 23 33 36 36 35 33 32 32 30 29 32 31 28 26 28 28 25 25 22 21 18 18 18 17 16 16 17 17 18 20 18 18 20
20 21 16 20 23 21 20 22 25 27 27 30 31 30 37 35 34 33 31 31 33 32 29 25 24 23 22 23 22 19 18 16 17 16 16 16 15 15 15 16 15 17 17 17
20 19 18 22 19 19 25 25 28 29 30 32 38 38 36 36 36 34 33 34 32 27 24 23 23 21 21 21 19 19 17 16 16 16 16 16 16 15 15 15 17 17 18 18
27 21 17 16 20 25 27 19 31 30 28 35 35 29 35 35 35 35 34 30 24 24 24 23 22 23 21 21 20 21 22 19 18 19 20 19 18 18 18 18 19 20 20 19
25 22 22 22 22 31 24 24 31 30 32 36 33 34 35 36 36 34 26 22 23 24 23 24 23 21 20 19 19 20 22 22 22 22 21 22 23 22 22 21 22 21 21 21
25 22 18 31 29 28 34 37 33 31 33 33 36 38 37 32 28 24 22 23 23 23 22 23 22 19 18 18 19 19 19 19 20 22 23 23 22 23 22 22 21 21 22 19
24 23 30 35 32 37 38 32 31 33 32 32 31 29 27 25 24 22 22 22 22 23 23 22 20 19 16 19 19 19 18 18 19 20 22 23 21 19 17 18 19 18 17 18
28 31 30 35 38 38 35 30 31 33 31 30 28 27 25 23 21 21 21 21 21 21 21 21 21 19 17 20 20 19 19 20 20 20 19 19 20 17 9 5 10 12 7 13
33 33 34 33 37 36 35 30 30 32 31 29 28 26 23 22 21 21 22 21 20 20 20 19 20 19 19 19 19 18 20 21 21 19 21 18 11 17 15 8 6 6 5 10
27 32 33 32 36 33 31 30 30 32 31 29 27 26 24 23 22 21 21 21 20 20 20 19 19 19 18 17 18 20 20 20 21 21 21 22 19 15 14 15 13 13 13 9
33 37 38 39 38 40 34 30 31 31 30 28 27 26 25 23 22 22 21 21 21 20 20 18 17 18 17 18 18 17 16 16 15 18 17 18 19 19 18 17 17 16 15 14
37 39 36 34 33 32 32 31 31 30 29 28 27 26 25 24 24 22 21 21 21 21 20 18 17 16 16 19 19 19 18 19 15 18 19 19 18 18 18 17 17 16 19 18
32 33 32 31 32 32 32 31 29 28 27 26 26 25 24 24 23 22 21 20 20 21 21 21 19 19 20 18 17 20 20 18 19 20 20 20 19 17 17 18 17 16 16 18
31 31 30 30 31 31 30 29 28 27 26 26 25 24 23 23 22 20 19 18 18 19 20 19 19 19 21 20 17 16 19 21 17 19 21 20 18 17 18 18 16 15 14 15
30 30 30 29 30 30 29 29 28 28 27 25 24 24 22 20 19 17 16 17 18 19 19 18 18 20 20 19 20 19 18 20 20 20 17 16 20 19 18 16 15 14 14 14
32 30 30 31 30 30 30 29 29 28 26 25 25 23 21 20 18 16 16 18 17 18 19 19 19 20 19 19 20 21 22 22 21 18 17 18 17 18 16 14 14 14 15 14
33 32 32 31 32 31 30 30 29 28 27 25 24 23 22 21 18 17 17 15 15 17 20 20 21 20 19 20 21 21 21 20 22 21 21 20 18 16 15 14 16 19 16 14
31 30 30 30 31 32 30 29 28 27 26 25 25 24 23 22 19 18 16 14 14 15 21 21 22 20 20 20 21 19 19 18 18 19 18 18 17 16 17 19 18 15 15 16
30 29 29 29 29 29 29 28 27 26 26 25 24 23 23 23 20 19 17 16 19 21 21 22 22 22 21 20 19 19 18 16 18 18 18 18 17 17 17 18 18 18 16 15
30 28 28 28 28 28 29 27 26 26 25 25 24 24 24 24 23 22 21 20 23 23 24 23 22 21 20 19 18 18 17 16 15 18 19 18 19 20 21 19 17 16 15 15
30 29 29 29 28 28 28 27 25 25 24 25 24 24 24 25 24 24 22 24 25 24 24 24 22 21 19 17 17 18 18 17 16 17 18 18 19 20 20 18 16 15 15 13
29 29 28 29 28 27 26 27 27 26 26 25 25 25 25 26 26 25 25 25 24 24 24 22 22 21 19 17 18 17 18 17 17 18 19 19 19 19 17 16 15 14 15 15
28 28 29 30 29 30 29 28 28 27 27 27 27 26 27 27 27 27 25 23 23 24 23 22 21 20 18 18 19 19 19 19 20 22 20 19 18 18 18 16 17 18 18 15
29 30 29 30 29 29 29 28 28 28 26 26 26 25 25 25 25 26 27 23 22 22 23 22 21 21 20 20 21 21 21 21 22 21 21 20 20 20 19 19 19 16 10 7
29 30 30 28 27 28 28 28 28 28 28 28 28 30 28 27 27 27 27 26 26 23 22 24 24 23 22 22 21 22 23 22 22 21 20 19 19 19 19 16 12 9 5 2

GFSNGP_sfc_30mbdewp_171.txt.gz
Dewpoint
17 16 16 13 13 14 15 16 14 13 12 16 20 21 22 24 27 31 29 28 28 26 25 26 26 28 28 27 28 28 27 27 25 25 25 27 26 24 24 23 20 20 20 20
10 15 17 18 20 22 22 22 22 21 20 22 23 24 24 27 31 31 30 28 28 27 26 26 27 28 28 27 27 28 28 27 27 25 24 24 26 25 23 24 19 19 19 19
11 19 21 18 20 20 20 20 21 19 21 22 23 25 31 31 32 32 31 30 29 28 28 28 27 28 28 28 29 28 28 27 24 24 22 24 26 25 21 21 20 18 18 19
21 23 17 19 20 21 22 22 23 24 24 25 27 30 35 36 34 33 32 31 30 29 29 29 29 29 29 29 30 29 27 22 21 20 19 20 22 23 22 19 19 19 17 18
17 18 18 16 11 16 18 18 22 24 28 31 36 36 34 36 35 34 32 31 30 30 29 30 29 28 29 27 28 24 20 19 19 18 17 17 16 16 17 18 18 18 17 15
21 16 8 17 21 26 25 19 27 31 28 28 35 27 25 35 35 33 32 31 31 31 32 29 27 28 26 24 23 18 18 19 19 19 17 16 16 17 18 19 19 20 19 17
21 17 18 23 24 27 23 16 31 33 30 30 30 32 33 36 34 32 32 32 33 31 30 27 26 26 22 20 18 19 21 21 20 21 20 20 19 20 20 21 21 20 18 15
23 21 17 26 26 23 25 32 34 34 33 32 34 35 35 34 33 33 31 31 29 26 25 24 24 23 19 18 18 20 20 21 21 22 22 22 21 22 22 22 21 20 20 18
24 23 28 31 32 33 35 34 33 34 34 33 34 35 35 34 30 28 28 25 24 24 23 22 22 20 18 17 19 19 18 19 20 21 22 22 21 21 20 20 20 19 16 14
31 33 31 32 34 34 35 36 36 37 36 34 34 35 32 28 27 26 25 24 23 23 22 21 20 19 19 19 19 18 17 18 19 19 20 18 17 17 17 15 14 13 13 6
31 32 31 33 34 34 34 36 38 36 33 32 33 31 29 26 25 25 24 23 23 22 21 20 20 19 19 20 19 18 18 19 20 20 20 17 13 9 13 10 4 -2 1 5
25 28 31 31 32 34 36 36 36 37 33 32 31 29 26 25 24 24 24 23 22 22 21 20 20 19 19 20 19 18 16 18 20 20 20 19 18 15 15 10 10 13 12 8
29 32 32 31 34 38 39 38 37 33 32 30 29 27 25 24 24 23 23 23 22 22 22 21 19 18 19 19 18 17 15 18 20 20 20 18 14 14 15 15 19 19 18 17
30 30 31 35 35 36 35 37 36 35 32 30 28 25 24 23 23 23 22 22 22 22 21 20 19 17 17 19 18 15 16 18 19 19 19 19 18 15 15 16 16 16 19 20
31 34 37 37 33 31 32 32 32 31 31 29 27 25 24 23 23 22 22 21 21 21 21 20 19 18 18 19 17 16 17 17 18 18 19 19 18 18 17 16 16 16 15 16
32 31 31 30 30 31 31 30 31 31 30 28 27 26 25 24 23 23 22 21 20 20 20 19 19 18 18 19 18 17 17 19 17 16 17 18 18 18 18 18 18 17 16 16
30 29 30 30 30 30 30 30 30 30 29 28 28 27 26 25 24 23 22 22 21 20 20 19 18 17 18 19 19 19 18 18 18 18 18 19 19 18 18 18 17 16 17 15
32 32 31 31 31 32 31 31 32 32 28 28 28 27 26 24 24 23 22 22 21 20 21 20 19 17 17 17 19 19 19 19 18 18 18 18 19 20 20 19 19 18 17 14
30 29 29 29 30 30 32 30 30 29 28 27 26 25 25 25 24 22 21 21 20 19 20 19 19 18 18 17 18 18 17 17 18 19 20 20 19 19 18 17 17 16 15 14
29 28 28 28 29 28 29 29 29 27 25 24 24 23 23 22 22 20 20 19 19 20 19 18 19 18 18 18 20 19 18 17 17 18 19 19 19 19 18 18 17 16 14 15
28 27 26 27 27 26 26 26 27 26 24 24 23 22 22 21 19 18 16 16 17 17 18 17 18 19 19 19 20 20 19 19 19 18 19 19 19 18 19 18 18 17 17 18
27 26 26 26 26 25 25 25 25 25 24 24 23 23 22 19 18 17 17 17 19 17 18 19 20 20 20 19 20 19 19 18 18 17 17 16 16 16 16 17 17 18 19 18
27 27 27 26 25 25 25 24 24 24 23 22 22 22 22 21 19 18 17 20 21 20 19 20 21 20 20 19 19 19 18 18 17 17 16 15 15 16 18 18 19 19 18 18
27 28 28 27 27 25 24 26 25 24 24 24 23 23 23 23 23 24 24 23 23 24 23 23 22 21 20 19 19 18 18 17 16 16 15 15 16 17 20 21 19 18 18 18
28 28 28 29 27 26 27 27 26 25 25 25 25 25 25 26 25 27 26 25 24 23 23 23 22 21 20 20 19 18 18 18 18 18 19 20 20 20 20 19 19 18 15 12
27 26 26 26 26 26 26 26 25 26 26 26 27 26 25 25 26 26 25 24 23 23 24 23 22 22 21 21 20 20 20 20 19 20 20 20 20 20 19 18 15 10 6 3
27 27 25 25 26 25 25 25 23 23 22 22 24 26 26 26 26 25 25 25 24 24 23 23 23 23 22 21 20 20 21 21 22 21 21 20 19 18 14 9 5 3 1 -1

GFSNGP_sfc_30mbdewp_174.txt.gz
Dewpoint
17 14 17 14 12 14 13 13 11 9 10 13 16 17 19 22 25 28 31 29 28 28 26 26 27 27 27 29 29 28 27 26 26 27 26 25 23 24 21 20 21 21 21 20
14 15 17 14 15 17 19 19 19 19 20 23 24 25 24 24 25 26 30 30 28 28 27 27 27 28 28 28 28 28 27 25 25 25 27 26 23 24 22 20 20 20 20 19
13 16 18 17 21 19 20 24 22 19 20 22 23 23 26 27 30 30 31 30 28 27 27 27 28 28 27 27 28 28 27 26 25 24 24 26 25 22 22 19 18 19 19 19
17 21 17 19 20 20 20 21 22 21 22 23 25 28 32 34 35 34 32 30 29 27 27 27 27 28 27 28 28 28 27 25 25 24 23 25 25 20 20 20 19 18 17 18
18 19 18 18 16 14 16 18 21 21 23 27 33 35 31 34 36 35 33 31 30 29 28 28 27 28 28 28 29 28 26 23 22 21 22 23 24 22 20 18 18 17 16 15
23 17 12 11 19 26 24 18 23 29 29 28 33 25 25 32 35 34 32 31 30 30 30 29 29 29 28 28 28 26 23 21 20 19 19 18 19 20 19 18 18 19 17 16
22 20 20 20 19 27 16 16 28 33 31 31 30 31 32 35 34 33 32 31 30 30 30 30 29 29 27 25 25 23 21 20 19 19 17 17 17 18 19 19 20 19 17 14
22 21 16 28 25 21 23 31 33 33 34 33 33 33 35 34 33 32 31 32 31 31 30 28 28 27 24 24 22 20 20 20 19 19 20 20 18 20 20 21 20 19 18 17
23 23 32 34 33 34 35 33 33 34 34 35 34 33 34 34 32 31 32 31 29 28 26 26 26 25 22 20 19 19 19 18 18 20 21 21 20 20 21 21 20 20 18 16
29 31 29 31 32 35 35 34 34 36 37 37 35 34 34 33 31 29 28 27 25 25 25 23 23 23 22 19 20 19 18 18 18 19 20 19 19 19 19 19 19 17 16 13
29 29 30 32 33 34 31 33 34 37 37 35 34 33 33 31 29 27 26 25 25 25 23 22 21 20 19 20 19 18 18 19 20 20 19 17 16 16 17 14 15 14 13 7
22 25 29 30 32 30 29 32 35 37 36 34 33 32 30 29 27 26 25 24 24 23 22 21 20 20 19 20 19 18 18 19 20 20 20 17 15 9 14 11 14 10 9 5
25 30 32 33 31 30 33 36 38 38 35 33 31 30 28 27 26 26 24 24 23 23 22 21 20 19 20 20 19 19 18 19 20 20 20 19 17 15 2 15 20 17 18 17
28 31 28 26 29 36 36 34 34 33 34 33 31 28 27 25 25 25 24 24 23 23 21 20 20 19 19 20 20 18 17 18 18 18 19 18 17 16 13 13 15 16 20 20
23 25 27 29 35 34 31 32 31 31 32 31 28 27 25 25 25 24 24 23 23 23 22 21 20 19 18 19 18 17 17 16 16 17 17 17 17 14 13 14 15 16 14 16
33 32 32 31 31 31 30 30 30 30 30 30 28 26 25 25 24 23 23 22 22 22 22 21 21 20 18 19 18 16 16 17 17 16 17 18 18 18 17 17 17 17 16 16
30 29 30 30 30 31 31 31 30 30 30 29 29 29 26 24 24 23 22 22 22 21 21 20 20 19 19 19 18 17 16 17 17 17 17 18 18 18 18 18 17 17 17 16
32 31 30 30 30 29 29 32 31 32 33 35 31 30 27 26 27 23 23 22 21 20 20 20 20 18 18 19 19 19 18 17 17 17 18 18 18 19 19 18 18 18 18 17
29 28 28 28 29 29 29 31 31 30 28 29 30 30 32 31 28 24 22 21 20 20 20 20 20 18 17 18 20 20 19 19 19 19 19 18 18 19 18 18 18 18 18 17
28 27 27 27 27 26 26 26 27 27 26 26 26 25 25 24 24 22 21 21 21 21 20 20 20 19 18 18 19 19 18 18 18 19 18 19 18 17 18 18 18 18 16 16
26 26 25 25 26 24 24 25 26 26 25 25 24 23 22 21 21 20 20 21 20 19 18 18 19 19 19 19 19 19 18 17 16 17 17 17 17 17 18 18 18 19 18 17
26 26 25 25 25 24 23 23 24 24 24 23 23 23 21 19 18 18 18 18 18 17 18 18 18 19 19 19 19 19 19 18 18 18 18 17 17 18 18 17 17 17 18 18
27 26 26 25 25 24 24 24 24 24 23 22 22 22 22 20 18 17 17 20 21 18 18 19 19 19 19 19 19 19 19 18 18 17 17 16 16 16 16 16 17 18 19 19
28 28 27 26 26 26 25 25 25 24 24 24 23 23 23 23 24 24 24 23 23 23 22 21 20 20 19 19 18 18 18 18 17 17 17 16 16 16 17 18 19 20 19 18
27 27 26 26 25 25 25 26 25 25 25 25 25 25 25 26 26 25 25 25 24 23 24 23 22 21 21 20 19 19 18 18 18 17 17 17 17 19 20 20 20 18 16 13
25 25 24 24 24 24 24 24 23 23 23 24 25 25 25 26 26 26 25 25 24 24 24 23 22 21 21 21 20 20 19 19 19 19 20 20 20 20 20 18 15 12 8 4
26 25 24 24 25 25 24 24 23 23 22 21 22 24 25 26 25 25 25 24 23 23 22 22 22 22 21 20 20 19 19 20 20 20 19 19 18 16 13 9 6 3 1 -0

GFSNGP_sfc_30mbdewp_177.txt.gz
Dewpoint
23 21 20 22 19 17 12 11 11 14 12 11 15 18 21 24 25 26 30 31 30 30 30 29 29 29 29 30 30 30 30 29 27 26 24 23 22 20 20 20 21 21 21 22
15 16 17 17 17 18 16 13 14 13 12 17 22 25 26 26 26 27 29 31 30 30 29 29 29 29 29 29 29 29 27 27 27 25 24 22 23 20 19 20 21 22 21 21
15 17 18 19 18 17 16 16 17 15 19 23 22 23 24 25 28 29 30 31 30 29 29 29 29 29 28 28 29 29 26 26 26 26 24 21 21 20 16 17 18 20 22 22
19 20 15 18 20 20 20 22 25 23 22 22 22 24 28 33 33 35 35 32 30 30 29 29 29 29 29 29 30 27 25 24 25 25 25 23 20 19 17 16 16 15 16 18
21 20 18 17 17 18 17 16 19 21 23 24 30 35 30 34 36 36 35 33 31 30 29 29 29 29 28 29 27 27 25 23 23 23 23 24 21 18 18 18 18 16 14 13
23 19 15 14 20 25 25 20 23 26 30 29 32 27 28 33 35 34 33 32 30 29 29 29 29 29 28 28 29 27 25 23 23 23 22 23 23 20 18 18 17 17 15 13
20 18 16 24 26 27 16 15 31 34 33 32 31 32 33 36 35 33 32 31 31 29 29 29 29 29 30 30 28 28 27 23 22 21 20 21 22 21 20 17 18 19 17 14
22 18 13 33 29 23 28 34 34 34 34 34 35 35 34 35 34 33 32 31 31 30 30 29 30 31 29 28 28 27 25 24 23 21 19 18 18 18 17 17 18 19 18 16
21 21 31 30 29 31 35 35 35 34 34 35 35 36 35 34 34 33 32 31 31 31 30 30 30 30 28 27 25 24 23 22 22 23 23 23 22 22 20 20 21 22 21 20
26 28 29 28 31 33 34 37 34 32 34 37 37 37 36 34 33 32 32 32 31 30 29 28 28 28 27 24 24 22 21 20 21 21 23 24 24 24 23 23 23 23 22 21
30 30 31 30 32 32 33 37 33 32 36 37 37 35 35 34 33 32 31 29 29 28 28 27 27 26 24 23 22 20 19 19 20 21 23 23 23 24 24 25 24 23 22 21
21 24 26 26 29 33 32 28 29 35 38 37 35 34 34 33 32 31 29 28 27 27 27 25 24 23 22 21 20 19 18 19 20 21 22 22 21 21 18 20 18 19 19 19
26 27 29 30 33 33 31 37 38 37 37 34 34 33 32 31 30 29 28 27 27 26 26 24 23 22 21 21 20 19 19 20 21 21 21 21 21 21 19 17 15 17 14 14
28 28 26 30 28 27 34 35 33 33 33 33 33 31 30 29 28 28 27 27 26 25 24 23 22 22 22 23 22 21 22 22 22 22 22 22 21 21 19 15 16 19 19 20
26 27 26 26 27 30 34 32 31 30 31 31 30 29 28 27 27 27 27 26 24 24 23 22 21 21 22 22 21 21 21 21 22 22 22 21 21 20 19 15 16 19 20 19
29 33 32 32 32 31 31 31 30 30 31 31 30 28 27 26 26 25 25 25 24 23 23 22 22 22 21 22 22 21 21 20 20 20 20 19 19 18 17 16 18 19 19 20
31 31 30 30 30 30 30 31 32 31 31 31 29 29 26 25 25 24 24 24 24 24 24 23 23 21 20 21 22 21 20 20 19 18 17 17 17 17 18 19 19 20 20 21
32 31 30 30 30 29 30 30 31 31 32 33 33 32 32 30 31 26 24 23 23 22 23 24 22 21 20 21 21 20 19 18 17 16 16 17 17 18 19 19 20 20 20 20
29 28 28 29 29 28 28 28 29 29 28 31 32 33 33 33 31 27 25 24 24 23 23 21 21 21 21 20 20 19 18 17 17 16 16 17 20 19 20 20 20 20 20 20
28 28 27 27 26 24 25 25 26 27 28 29 28 28 28 27 27 25 24 23 24 24 23 23 22 20 20 20 21 20 20 20 19 19 20 19 20 21 21 20 20 20 21 21
27 27 25 25 24 23 23 24 26 26 25 29 31 28 27 23 23 23 23 23 23 21 21 21 22 21 20 19 20 20 21 21 21 21 21 21 21 20 20 19 20 20 21 22
27 25 24 24 24 23 23 25 25 24 24 23 23 23 21 21 21 20 20 21 20 19 20 19 20 20 20 20 20 21 21 20 20 20 20 20 20 20 20 20 20 22 22 22
27 27 26 24 24 24 24 24 24 24 23 23 23 23 22 21 21 21 20 21 21 19 20 20 19 20 20 21 22 22 21 21 21 21 20 21 20 20 20 20 20 21 20 20
28 27 26 26 26 25 24 24 25 24 24 24 24 24 25 26 27 26 25 24 23 24 24 23 21 20 20 22 21 21 21 21 21 20 20 19 20 20 19 19 19 21 22 21
26 26 26 25 24 24 24 24 24 25 25 25 25 25 26 26 26 26 27 26 25 26 26 24 23 22 23 23 22 21 21 21 21 20 20 20 19 19 19 20 20 21 20 18
25 24 24 24 24 24 24 23 23 23 23 24 25 26 26 26 26 26 25 24 24 24 24 24 24 23 23 23 22 22 21 21 21 21 21 21 21 21 22 21 19 17 14 11
25 24 24 24 25 25 25 24 23 22 22 22 22 21 22 23 24 24 25 25 24 23 23 23 23 23 23 22 21 21 21 21 21 21 21 21 21 20 17 14 11 8 6 4

GFSNGP_sfc_30mbdewp_183.txt.gz
Dewpoint
11 10 10 11 13 10 8 10 10 15 16 14 21 26 28 27 28 20 19 23 31 39 38 39 40 38 37 36 37 36 34 33 32 30 28 24 21 22 23 23 24 24 22 22
12 10 8 6 7 6 6 7 7 7 9 12 13 16 17 19 17 17 17 19 26 33 38 38 38 37 36 36 36 35 34 33 32 29 27 24 20 21 23 22 22 23 25 28
12 11 11 12 14 13 11 10 11 11 14 15 15 17 19 15 17 19 21 22 28 31 34 37 37 36 35 35 36 34 33 32 31 30 26 23 19 19 20 20 21 24 24 26
19 15 13 17 16 15 14 14 14 13 15 17 19 16 13 18 18 23 28 31 33 35 34 35 36 35 34 34 35 34 33 32 30 29 24 21 17 16 17 19 20 20 21 22
21 18 15 13 11 15 16 14 12 13 16 22 32 35 24 36 31 32 33 35 35 35 35 35 35 34 34 34 34 33 32 31 30 29 23 20 16 15 16 17 18 18 19 21
22 21 13 12 21 21 18 11 24 27 28 30 32 29 36 39 35 35 34 34 34 34 34 35 34 34 34 33 33 32 31 31 32 29 23 19 17 16 17 17 17 16 15 16
19 19 17 14 22 22 12 14 26 26 27 32 33 36 36 37 35 35 34 34 34 34 34 34 35 34 36 35 34 35 33 34 32 30 24 20 18 18 17 17 17 16 14 14
20 18 16 22 22 18 19 23 23 24 24 28 34 33 33 31 32 35 35 34 34 34 33 34 35 37 35 34 36 35 36 33 33 30 24 21 20 19 18 18 17 17 15 15
18 18 20 23 24 24 23 22 24 25 28 31 32 34 33 32 33 34 35 34 34 33 33 34 33 35 34 34 35 35 34 35 33 31 30 24 24 23 20 18 20 21 21 20
22 21 18 18 19 20 21 22 25 24 24 28 30 32 34 33 33 35 36 36 34 34 33 33 33 33 33 33 33 33 33 33 32 31 31 28 33 32 27 26 26 27 27 27
23 22 20 19 19 15 21 23 23 25 26 28 32 31 33 33 32 34 35 36 35 35 34 33 32 32 32 32 32 32 32 28 26 26 27 30 33 33 31 33 32 30 30 30
26 24 23 21 20 19 19 21 21 23 25 32 35 34 32 31 32 34 35 35 35 36 35 34 33 32 31 31 31 32 31 29 26 24 25 25 27 30 29 32 31 30 34 33
24 24 25 26 23 21 21 23 24 22 23 31 32 30 29 29 30 34 34 34 35 35 35 34 33 32 31 31 32 31 30 28 26 25 26 25 26 27 28 26 24 26 26 28
23 22 22 22 20 20 23 25 25 23 26 33 32 31 31 30 31 32 33 34 34 34 35 35 33 33 34 34 32 32 31 27 28 27 28 28 28 29 29 28 25 25 24 24
19 19 17 18 19 21 25 28 26 28 32 32 32 32 31 31 31 32 33 34 33 33 33 32 31 31 30 30 30 29 27 27 29 28 29 27 27 27 27 27 28 27 26 24
19 19 18 18 23 24 27 30 31 31 32 32 33 33 32 31 31 31 31 32 32 31 32 31 31 31 30 29 27 28 27 27 27 28 27 27 26 25 24 24 24 25 25 24
24 23 23 23 23 24 30 30 31 32 33 33 34 35 34 31 28 28 29 29 31 32 32 32 31 31 31 31 28 28 27 27 27 26 27 27 26 25 23 24 24 23 24 26
31 30 30 31 31 33 32 32 33 33 33 35 38 35 34 33 33 33 32 32 31 30 31 31 31 30 29 30 29 29 29 28 27 26 26 27 26 25 25 24 23 23 22 22
32 32 32 32 32 32 32 32 32 32 32 33 35 34 34 33 33 32 31 30 30 30 31 31 29 29 29 29 30 29 27 27 26 26 25 25 26 25 25 25 23 22 21 22
32 32 32 31 29 28 29 30 31 32 32 33 34 33 32 31 31 31 30 31 31 30 32 31 29 29 28 27 26 25 26 27 26 25 25 23 24 26 24 21 21 23 25 25
29 29 28 28 28 29 30 30 31 30 31 32 32 31 30 30 30 31 30 30 28 28 27 27 26 25 24 24 24 25 25 27 27 25 23 24 24 23 24 24 24 24 26 27
29 28 27 28 28 28 29 30 30 30 29 29 29 30 30 29 28 27 27 28 25 24 25 24 25 24 23 22 22 25 26 26 27 27 26 27 26 26 26 26 26 27 27 27
28 28 27 27 27 28 28 28 29 29 27 28 28 29 28 28 28 29 27 26 25 23 23 27 24 24 24 27 26 28 28 28 28 27 28 28 28 27 27 27 27 27 27 27
28 28 28 28 27 27 26 28 27 27 28 27 27 28 28 29 28 28 29 28 28 29 29 28 27 24 24 29 29 29 29 28 28 28 28 28 28 28 28 28 27 27 27 27
29 29 28 28 26 26 26 27 27 26 26 26 26 26 26 26 26 26 26 26 25 26 28 27 26 26 28 29 29 29 29 29 29 28 28 27 27 27 27 26 26 26 25 26
29 27 26 26 25 25 25 25 25 25 25 24 25 25 25 25 25 25 25 25 24 25 24 26 25 27 28 28 28 27 27 27 26 26 26 26 26 25 25 25 25 25 24 21
27 26 24 23 23 24 23 24 23 22 23 24 22 22 22 23 22 22 22 24 25 25 24 23 24 23 24 25 26 26 26 26 23 26 26 26 25 24 24 22 20 18 16 15

GFSNGP_sfc_30mbdewp_189.txt.gz
Dewpoint
16 15 15 13 12 11 11 11 10 15 15 20 16 18 18 23 29 30 30 28 29 36 39 40 40 41 41 40 39 38 37 36 34 32 30 29 28 29 28 26 26 25 24 23
25 24 23 23 16 15 15 15 12 12 11 14 17 23 34 36 36 35 37 31 32 35 40 40 40 40 40 39 38 37 36 35 34 32 29 28 28 28 28 27 26 25 25 26
23 24 23 23 22 18 17 17 17 14 16 22 26 30 34 35 35 36 37 40 40 41 41 41 41 40 40 39 38 37 36 36 33 32 29 27 27 28 27 26 26 27 28 26
21 20 15 17 18 19 19 19 23 26 28 31 28 30 35 35 35 34 36 39 40 41 42 43 42 41 40 39 38 37 36 36 34 32 28 26 26 27 27 26 27 28 27 26
19 18 18 20 18 16 17 19 28 29 32 31 26 29 30 35 36 36 41 41 42 41 41 42 41 40 39 39 39 38 36 36 34 32 28 25 25 26 26 26 27 27 27 26
24 19 16 17 23 27 27 19 30 28 25 23 25 23 28 35 36 37 40 41 42 39 36 40 40 39 38 38 38 37 36 35 34 32 29 25 24 25 25 25 26 25 26 26
25 23 24 28 28 31 21 24 33 23 22 25 26 28 30 35 37 38 39 39 37 35 35 37 39 38 37 36 36 37 36 35 34 32 30 25 24 25 24 24 25 23 24 25
22 21 17 33 32 27 31 31 34 26 23 26 29 29 30 32 33 33 35 40 37 34 35 37 38 36 35 35 36 36 36 35 34 32 32 28 25 26 28 26 23 23 23 24
27 26 31 36 35 33 32 31 28 21 25 24 24 26 35 36 37 38 37 41 39 34 36 37 37 36 35 35 35 35 34 34 34 35 34 33 32 31 29 24 23 22 21 22
27 26 26 26 30 30 30 29 27 22 21 21 23 26 35 36 36 40 40 40 42 35 35 35 37 36 36 35 35 35 35 34 34 33 33 33 33 31 25 24 23 22 21 19
23 24 29 30 29 30 31 31 31 29 21 22 23 24 29 36 36 38 38 39 40 36 34 34 35 35 35 35 35 35 35 34 34 33 33 33 33 30 28 25 25 24 22 22
19 26 29 28 30 30 31 28 29 28 25 24 24 24 26 30 34 34 32 39 38 36 35 34 34 34 35 35 35 35 34 33 33 33 33 32 32 30 32 30 31 28 26 25
25 27 25 24 28 25 26 30 33 31 24 24 24 24 27 33 32 32 33 33 37 36 35 34 33 33 34 34 35 34 33 33 33 33 32 31 31 29 28 28 31 32 30 29
23 23 22 24 25 24 25 22 21 23 24 27 33 38 39 34 32 33 34 35 36 36 35 35 33 33 33 33 33 33 33 33 33 32 32 32 31 30 28 27 27 27 29 31
22 23 23 25 25 22 21 20 18 26 32 34 38 39 38 35 32 32 32 33 35 37 37 36 35 34 33 33 33 32 32 32 32 32 32 31 29 29 28 27 26 25 26 27
26 27 27 30 30 32 32 28 30 33 34 36 37 35 33 32 31 31 31 31 31 32 33 33 33 34 35 33 33 32 33 33 32 32 31 29 28 27 28 28 27 26 25 25
29 31 32 33 33 34 35 35 34 36 38 38 36 35 33 31 30 31 31 30 30 31 32 33 33 34 34 34 33 32 32 33 32 32 31 30 29 28 28 28 28 28 28 27
33 34 34 33 32 33 34 33 34 35 35 35 34 33 33 32 31 31 30 29 29 28 29 30 31 31 31 32 32 32 32 31 31 31 31 30 29 28 28 27 27 27 26 28
32 32 32 31 30 31 32 32 32 32 32 33 34 32 32 32 31 30 30 30 30 29 28 29 30 30 30 31 32 32 32 31 31 31 31 31 31 30 29 28 27 26 26 26
29 29 29 29 29 30 29 31 31 31 32 33 32 30 30 30 31 31 28 26 26 27 29 29 29 29 29 30 30 31 31 31 31 30 30 30 29 28 29 29 28 27 27 27
29 29 29 29 28 29 30 30 29 29 30 31 29 28 29 29 30 31 28 25 25 26 27 28 28 28 29 28 28 29 27 30 31 30 29 29 29 28 28 28 28 27 25 25
29 28 28 28 28 28 29 29 29 29 29 30 30 29 28 27 27 27 27 26 28 28 26 24 24 24 25 25 25 25 28 28 28 28 28 28 28 27 26 25 25 25 25 25
29 29 29 28 27 27 28 28 28 28 27 27 28 27 26 27 27 25 24 28 29 28 27 26 24 23 26 27 27 27 28 29 28 29 29 29 29 28 28 27 27 26 27 27
29 29 29 29 29 28 26 27 27 27 27 27 27 27 27 25 25 28 27 26 28 27 27 26 26 26 27 29 29 29 29 29 29 29 28 28 28 28 28 28 28 28 28 28
29 29 29 29 28 27 27 28 27 27 26 25 25 25 25 27 25 26 27 27 25 25 25 25 25 27 27 27 27 27 27 25 25 24 25 26 26 26 26 26 26 25 24 23
29 28 28 29 29 29 29 28 26 26 25 24 24 25 25 24 25 25 24 23 25 26 25 23 23 25 24 22 20 20 20 19 20 19 20 20 20 21 21 20 18 17 16 15
28 28 27 26 26 26 27 26 23 23 24 22 21 22 22 22 20 19 18 18 19 20 23 19 18 17 17 16 15 15 14 14 16 16 16 16 16 16 16 15 15 14 14 13

GFSNGP_sfc_30mbdewp_192.txt.gz
Dewpoint
16 16 17 18 18 19 20 18 14 13 15 16 18 23 31 35 35 35 37 36 34 35 36 38 40 41 41 41 40 39 38 36 35 32 30 31 30 30 28 27 25 25 26 25
22 23 24 24 26 24 23 23 20 18 16 18 29 35 34 35 34 35 36 38 40 39 39 41 40 40 41 41 40 39 38 36 34 32 30 30 30 29 28 26 26 26 25 25
23 25 26 21 21 21 20 22 19 16 17 28 29 30 31 32 32 32 35 37 37 39 40 43 41 41 41 41 40 38 37 36 34 31 29 29 29 28 27 26 26 26 28 25
23 23 15 15 17 18 18 19 20 20 27 29 29 30 34 35 33 32 34 37 39 40 40 42 43 41 42 40 39 37 37 35 33 31 28 28 28 28 27 27 27 27 26 25
20 17 17 17 16 15 15 15 25 28 31 33 30 30 29 33 35 34 35 38 41 41 40 41 42 42 40 39 38 37 36 35 33 32 28 27 27 27 27 27 28 27 26 24
19 18 14 18 27 29 29 21 33 33 32 32 25 21 23 29 34 35 37 39 40 41 42 39 42 41 40 38 38 37 36 36 34 32 29 27 27 28 29 29 28 29 27 26
20 21 25 31 32 33 23 22 32 32 32 31 25 26 28 31 34 35 36 37 39 37 36 38 40 40 38 37 38 38 37 37 35 33 29 27 27 30 29 27 30 30 28 27
20 19 17 34 32 28 32 35 36 31 32 32 29 29 30 33 34 35 37 38 40 39 35 38 39 38 37 37 37 37 36 36 35 33 28 27 27 31 29 30 29 29 27 26
26 24 31 33 32 34 35 34 34 31 28 25 23 25 33 35 35 37 39 41 42 38 36 37 38 37 36 36 35 36 36 35 34 33 30 27 30 31 31 31 30 28 27 25
24 23 25 30 30 34 35 34 33 31 27 23 21 25 32 35 36 37 36 39 42 41 36 36 36 36 36 36 35 35 35 34 34 34 32 30 29 29 30 30 29 29 26 23
22 22 23 25 30 31 33 34 32 29 29 27 22 24 27 31 34 36 37 36 40 41 37 35 36 35 36 36 35 35 34 34 34 34 32 31 32 31 31 30 29 27 24 23
12 17 23 23 29 26 25 30 30 28 29 26 24 24 25 26 34 32 33 36 39 37 35 35 35 35 35 35 35 34 34 34 34 33 32 32 31 31 32 30 27 26 25 23
20 22 27 25 25 25 24 26 28 29 32 27 25 25 29 32 33 34 34 35 37 36 34 34 34 34 35 35 35 35 34 34 33 33 32 32 32 30 29 30 31 29 26 24
21 21 23 24 24 24 25 27 27 28 30 27 37 38 35 33 33 32 32 35 37 37 35 34 33 33 34 35 35 34 34 34 33 33 32 32 31 30 29 28 27 28 30 27
24 25 25 26 28 30 32 28 23 27 36 37 38 38 36 35 35 33 31 32 34 36 36 35 34 33 34 34 34 34 33 33 33 32 32 32 32 30 29 28 27 26 26 29
25 29 32 34 34 34 35 33 31 33 35 37 36 34 33 32 31 31 30 31 31 31 32 32 33 34 33 33 33 32 32 32 32 31 31 31 30 30 29 29 27 26 26 26
30 30 33 33 33 34 34 35 36 37 37 36 34 33 30 30 30 29 28 29 29 29 30 31 31 33 33 33 33 32 32 32 32 31 31 30 30 29 29 28 27 26 25 25
33 33 32 32 31 31 33 33 33 34 34 35 33 32 31 31 29 28 28 28 28 28 28 29 30 30 31 32 32 32 32 32 31 31 31 30 30 30 29 28 28 28 28 27
31 30 29 30 29 30 31 31 32 32 32 33 32 32 32 31 30 29 29 28 28 27 27 29 28 28 29 31 32 32 31 31 31 31 31 30 30 29 29 28 28 28 28 27
28 28 28 28 29 28 29 30 31 31 31 32 31 30 30 29 29 27 25 25 25 27 28 28 28 29 29 29 30 30 31 31 30 30 30 30 29 29 29 29 29 29 29 28
27 28 28 27 27 28 28 29 29 28 29 30 29 28 28 29 29 27 25 25 27 26 26 24 25 27 28 27 28 28 27 29 29 29 29 29 28 28 28 28 28 28 27 28
27 27 27 27 27 27 28 29 29 29 29 29 28 27 26 25 25 26 27 26 27 25 24 23 23 25 26 25 25 27 28 28 28 28 27 27 27 27 27 27 26 25 25 24
28 28 27 27 26 27 28 28 27 27 27 26 26 26 26 26 26 23 23 27 27 26 26 25 25 26 27 27 26 26 27 27 27 27 27 27 27 27 27 26 26 26 26 26
29 28 28 28 27 27 25 26 26 26 25 25 26 26 25 24 25 26 26 26 26 25 25 26 27 27 28 28 27 26 25 24 25 25 25 25 26 26 26 26 26 26 26 27
28 28 28 27 27 26 26 26 25 25 25 24 25 25 25 26 24 25 25 25 25 24 23 24 23 22 21 19 19 18 18 17 17 19 18 18 19 21 22 23 22 21 20 19
28 28 28 29 28 27 27 27 24 24 23 22 22 22 22 21 20 19 19 19 20 20 17 16 16 16 14 13 13 12 12 12 13 14 14 14 14 14 14 14 13 13 13 13
27 27 26 26 26 27 26 25 24 23 22 20 18 19 18 16 15 15 14 15 14 13 12 11 10 9 8 7 7 7 7 7 6 8 11 11 11 11 11 10 10 10 10 9

GFSNGP_sfc_30mbdewp_195.txt.gz
Dewpoint
19 19 19 17 17 21 20 18 18 18 19 20 20 20 23 32 34 34 33 35 37 37 37 38 38 40 41 41 41 41 40 39 37 34 32 31 31 31 31 30 28 29 28 27
22 23 23 22 22 25 26 25 24 22 22 23 21 33 34 34 34 33 32 33 35 36 37 38 39 40 40 41 41 41 40 39 36 33 32 31 31 31 30 30 31 28 26 26
21 25 27 23 25 24 22 21 19 17 20 22 24 32 32 33 34 32 32 34 35 37 38 39 40 42 41 41 41 41 40 38 36 33 32 31 31 30 29 27 26 26 26 27
22 24 16 18 20 19 19 19 20 21 21 23 26 30 33 35 32 32 32 34 36 39 40 39 40 41 41 41 40 40 39 38 35 33 32 32 30 29 28 27 25 26 27 28
22 21 22 16 17 16 19 17 23 26 31 33 33 32 30 34 35 33 34 36 37 39 41 41 41 42 41 40 40 39 38 37 35 33 31 31 30 29 27 26 26 28 29 29
24 18 13 12 28 31 29 23 32 32 31 26 27 23 25 26 33 34 35 36 36 38 40 41 40 41 40 39 38 37 37 36 34 32 31 31 32 32 30 28 28 30 30 28
22 20 21 30 34 34 22 22 33 33 33 32 29 28 28 30 31 34 34 35 37 39 39 38 39 40 38 37 37 36 37 36 34 32 31 32 33 33 31 31 31 30 28 28
20 18 15 31 31 28 31 35 35 33 34 34 34 33 31 30 33 33 35 37 40 41 40 39 39 39 37 37 36 36 37 36 34 33 31 30 32 32 32 31 30 29 29 27
23 22 21 31 28 30 33 35 33 33 34 33 31 31 29 31 34 35 36 38 41 40 37 37 38 38 37 36 35 36 36 36 34 32 29 29 32 31 30 30 29 29 28 27
22 21 25 27 31 33 35 34 36 32 31 31 26 24 25 32 34 35 36 36 40 37 40 38 37 37 36 36 35 35 35 35 34 30 29 31 32 32 31 29 29 29 28 26
20 19 18 22 27 25 27 32 34 34 34 33 28 26 24 28 33 34 37 35 38 40 40 40 37 35 36 36 35 35 35 34 34 32 29 31 31 31 31 30 29 29 29 28
13 13 14 17 23 23 27 23 22 23 28 31 29 26 24 25 30 33 33 35 38 39 39 37 36 35 35 36 35 34 34 34 34 33 32 31 30 30 33 32 32 32 31 28
17 18 20 22 25 25 22 23 25 26 27 29 29 27 25 29 33 34 34 34 35 36 36 35 35 34 35 35 35 34 34 34 34 33 32 31 31 30 28 30 32 32 31 27
23 23 21 21 23 23 25 26 27 27 29 31 31 30 32 33 33 32 32 34 36 36 34 33 34 34 34 35 34 35 34 34 33 33 32 32 31 31 30 28 28 29 30 28
23 24 25 25 25 26 32 35 33 28 26 30 35 35 33 33 34 32 31 33 34 33 34 34 33 33 34 34 34 34 34 33 33 32 32 32 32 31 30 29 29 28 28 29
24 26 27 28 33 35 35 35 34 32 34 37 37 36 35 34 31 30 31 31 31 30 31 32 32 33 33 33 34 33 33 33 32 32 31 31 31 30 29 28 27 26 26 28
27 28 32 33 33 33 33 33 34 34 36 36 34 33 32 31 29 29 29 30 29 29 29 30 30 32 33 33 33 32 32 32 31 31 31 31 30 30 29 28 27 27 27 26
33 33 32 31 31 29 31 31 32 34 34 35 33 31 30 30 29 28 28 28 28 27 28 29 29 30 31 32 32 32 32 31 31 30 31 30 30 30 29 28 28 27 27 25
29 29 29 28 28 29 30 29 30 31 32 32 32 32 31 29 28 28 28 27 26 26 27 28 28 28 29 31 32 31 31 31 30 30 30 30 29 30 29 29 28 28 28 28
28 28 28 28 28 28 28 30 30 30 31 31 31 30 28 28 27 25 25 24 25 27 28 27 28 28 29 29 31 31 31 30 29 29 29 29 29 29 29 29 28 28 28 28
27 27 27 26 26 27 28 28 29 29 29 30 29 28 27 27 27 27 26 24 24 24 24 25 27 25 25 27 28 27 28 29 29 28 28 28 27 27 27 27 27 27 27 27
28 27 27 26 27 27 28 28 28 28 27 27 27 26 25 25 25 25 26 24 25 24 24 25 26 25 25 26 26 26 27 27 27 27 26 26 25 25 25 25 26 25 24 23
29 28 27 27 27 27 27 27 27 27 26 25 25 25 25 26 25 24 22 26 26 26 25 25 26 26 26 26 26 25 25 25 24 24 24 24 24 24 24 25 25 25 25 25
29 29 28 28 28 26 25 25 25 25 25 25 25 25 25 23 24 26 26 24 23 24 23 22 21 21 21 19 18 17 17 17 18 17 17 17 18 20 20 21 22 22 22 22
30 29 28 27 26 25 26 25 25 24 24 23 23 23 23 23 22 22 23 23 21 18 16 16 14 14 13 12 12 12 12 12 12 13 12 12 13 13 13 13 12 13 13 13
29 27 27 27 26 27 26 25 23 23 22 20 20 19 18 18 18 18 18 16 14 12 10 9 9 8 8 7 7 6 6 6 7 9 9 9 9 9 9 9 9 9 9 9
27 27 26 26 27 27 27 25 23 21 20 18 16 16 15 14 13 14 13 11 10 8 6 5 4 3 2 2 1 1 1 2 2 3 4 6 6 6 6 6 5 5 5 5